Wetterdaten: Montag, 16.09.2013
Datum Zeit Temperatur Luftfeuchte Luftdruck Regen Wind Richtung Richtung Taupunkt Windchill Windben
16.09.2013 00:00 12,7 C 87 % 1013,1 hPa 0,0 l/m 6,0 km/h (2 Bft) S 180 10,6 C 12,8 C 6,6 km/h (2 Bft)
16.09.2013 00:05 12,7 C 87 % 1013,1 hPa 0,0 l/m 6,6 km/h (2 Bft) S 180 10,6 C 12,6 C 13,5 km/h (3 Bft)
16.09.2013 00:10 12,6 C 87 % 1013,1 hPa 0,0 l/m 7,1 km/h (2 Bft) S 180 10,5 C 12,2 C 10,1 km/h (2 Bft)
16.09.2013 00:15 12,5 C 87 % 1013,1 hPa 0,0 l/m 6,1 km/h (2 Bft) SO 135 10,4 C 12,6 C 5,1 km/h (1 Bft)
16.09.2013 00:20 12,4 C 87 % 1013,1 hPa 0,0 l/m 5,6 km/h (1 Bft) S-SW 202 10,3 C 12,7 C 5,6 km/h (1 Bft)
16.09.2013 00:25 12,4 C 87 % 1013,1 hPa 0,0 l/m 5,6 km/h (1 Bft) SO 135 10,3 C 12,7 C 6,1 km/h (2 Bft)
16.09.2013 00:30 12,4 C 86 % 1013,1 hPa 0,0 l/m 6,4 km/h (2 Bft) SW 225 10,1 C 12,5 C 15,0 km/h (3 Bft)
16.09.2013 00:35 12,1 C 86 % 1013,1 hPa 0,0 l/m 7,2 km/h (2 Bft) S 180 9,8 C 11,6 C 20,9 km/h (4 Bft)
16.09.2013 00:40 12,3 C 86 % 1013,2 hPa 0,0 l/m 8,5 km/h (2 Bft) N 360 10,0 C 10,6 C 9,2 km/h (2 Bft)
16.09.2013 00:45 12,3 C 86 % 1013,2 hPa 0,0 l/m 9,0 km/h (2 Bft) S-SW 202 10,0 C 10,2 C 8,7 km/h (2 Bft)
16.09.2013 00:50 12,4 C 86 % 1013,2 hPa 0,0 l/m 8,4 km/h (2 Bft) S-SO 157 10,1 C 10,9 C 7,7 km/h (2 Bft)
16.09.2013 00:55 12,4 C 85 % 1013,2 hPa 0,0 l/m 8,2 km/h (2 Bft) S-SW 202 9,9 C 11,0 C 8,9 km/h (2 Bft)
16.09.2013 01:00 12,4 C 85 % 1013,2 hPa 0,0 l/m 7,7 km/h (2 Bft) SO 135 9,9 C 11,5 C 11,9 km/h (2 Bft)
16.09.2013 01:05 12,4 C 85 % 1013,2 hPa 0,0 l/m 7,4 km/h (2 Bft) S 180 9,9 C 11,6 C 15,6 km/h (3 Bft)
16.09.2013 01:10 12,5 C 85 % 1013,2 hPa 0,0 l/m 7,4 km/h (2 Bft) S 180 10,0 C 11,6 C 17,7 km/h (3 Bft)
16.09.2013 01:15 12,5 C 85 % 1013,2 hPa 0,0 l/m 8,7 km/h (2 Bft) SO 135 10,0 C 10,7 C 7,6 km/h (2 Bft)
16.09.2013 01:20 12,4 C 85 % 1012,9 hPa 0,0 l/m 8,4 km/h (2 Bft) S-SO 157 9,9 C 10,9 C 10,9 km/h (2 Bft)
16.09.2013 01:25 12,3 C 85 % 1012,9 hPa 0,0 l/m 6,0 km/h (2 Bft) S-SO 157 9,9 C 12,7 C 5,5 km/h (1 Bft)
16.09.2013 01:30 12,3 C 85 % 1012,9 hPa 0,0 l/m 4,8 km/h (1 Bft) S-SW 202 9,9 C 12,7 C 12,2 km/h (2 Bft)
16.09.2013 01:35 12,3 C 85 % 1012,9 hPa 0,0 l/m 6,1 km/h (2 Bft) S 180 9,9 C 12,4 C 8,5 km/h (2 Bft)
16.09.2013 01:40 12,3 C 85 % 1013,0 hPa 0,0 l/m 6,9 km/h (2 Bft) S-SO 157 9,9 C 12,0 C 7,2 km/h (2 Bft)
16.09.2013 01:45 12,3 C 85 % 1013,0 hPa 0,0 l/m 6,3 km/h (2 Bft) SO 135 9,9 C 12,4 C 4,5 km/h (1 Bft)
16.09.2013 01:50 12,3 C 85 % 1013,0 hPa 0,0 l/m 7,9 km/h (2 Bft) SO 135 9,9 C 11,1 C 10,6 km/h (2 Bft)
16.09.2013 01:55 12,3 C 85 % 1013,0 hPa 0,0 l/m 8,4 km/h (2 Bft) S-SW 202 9,9 C 10,8 C 6,6 km/h (2 Bft)
16.09.2013 02:00 12,3 C 85 % 1012,9 hPa 0,0 l/m 8,0 km/h (2 Bft) S-SW 202 9,9 C 11,2 C 4,0 km/h (1 Bft)
16.09.2013 02:05 12,2 C 85 % 1012,9 hPa 0,0 l/m 6,4 km/h (2 Bft) SO 135 9,8 C 12,5 C 6,6 km/h (2 Bft)
16.09.2013 02:10 12,2 C 85 % 1012,9 hPa 0,0 l/m 6,1 km/h (2 Bft) S 180 9,8 C 12,4 C 9,2 km/h (2 Bft)
16.09.2013 02:15 12,2 C 85 % 1012,9 hPa 0,0 l/m 7,7 km/h (2 Bft) S 180 9,8 C 11,2 C 12,6 km/h (3 Bft)
16.09.2013 02:20 12,2 C 85 % 1012,9 hPa 0,0 l/m 8,0 km/h (2 Bft) S 180 9,8 C 10,8 C 12,2 km/h (2 Bft)
16.09.2013 02:25 12,1 C 85 % 1012,9 hPa 0,0 l/m 6,9 km/h (2 Bft) S 180 9,7 C 11,8 C 3,7 km/h (1 Bft)
16.09.2013 02:30 12,2 C 85 % 1012,9 hPa 0,0 l/m 6,4 km/h (2 Bft) S 180 9,8 C 12,2 C 7,4 km/h (2 Bft)
16.09.2013 02:35 12,1 C 85 % 1012,9 hPa 0,0 l/m 5,1 km/h (1 Bft) S 180 9,7 C 12,5 C 6,0 km/h (2 Bft)
16.09.2013 02:40 12,1 C 85 % 1012,8 hPa 0,0 l/m 5,3 km/h (1 Bft) S-SO 157 9,7 C 12,5 C 7,2 km/h (2 Bft)
16.09.2013 02:45 12,1 C 86 % 1012,8 hPa 0,0 l/m 7,1 km/h (2 Bft) O-SO 112 9,8 C 11,4 C 9,5 km/h (2 Bft)
16.09.2013 02:50 12,0 C 86 % 1012,8 hPa 0,0 l/m 7,6 km/h (2 Bft) SO 135 9,7 C 10,9 C 5,5 km/h (1 Bft)
16.09.2013 02:55 12,0 C 86 % 1012,8 hPa 0,0 l/m 7,1 km/h (2 Bft) S 180 9,7 C 11,3 C 14,8 km/h (3 Bft)
16.09.2013 03:00 12,0 C 86 % 1012,6 hPa 0,0 l/m 6,0 km/h (2 Bft) S-SW 202 9,7 C 12,1 C 5,8 km/h (2 Bft)
16.09.2013 03:05 12,0 C 86 % 1012,6 hPa 0,0 l/m 5,8 km/h (2 Bft) S 180 9,7 C 12,1 C 7,9 km/h (2 Bft)
16.09.2013 03:10 12,0 C 86 % 1012,6 hPa 0,0 l/m 6,3 km/h (2 Bft) S 180 9,7 C 12,0 C 5,8 km/h (2 Bft)
16.09.2013 03:15 12,0 C 87 % 1012,6 hPa 0,0 l/m 6,8 km/h (2 Bft) S 180 9,9 C 11,5 C 7,9 km/h (2 Bft)
16.09.2013 03:20 12,0 C 87 % 1012,6 hPa 0,0 l/m 7,1 km/h (2 Bft) S 180 9,9 C 11,3 C 10,6 km/h (2 Bft)
16.09.2013 03:25 11,9 C 87 % 1012,6 hPa 0,0 l/m 7,7 km/h (2 Bft) S 180 9,8 C 10,5 C 5,0 km/h (1 Bft)
16.09.2013 03:30 11,6 C 87 % 1012,6 hPa 0,0 l/m 6,1 km/h (2 Bft) S 180 9,5 C 11,4 C 7,9 km/h (2 Bft)
16.09.2013 03:35 11,4 C 88 % 1012,6 hPa 0,0 l/m 6,0 km/h (2 Bft) S-SO 157 9,5 C 11,2 C 6,9 km/h (2 Bft)
16.09.2013 03:40 11,4 C 88 % 1012,4 hPa 0,0 l/m 6,3 km/h (2 Bft) O-SO 112 9,5 C 11,0 C 8,7 km/h (2 Bft)
16.09.2013 03:45 11,4 C 89 % 1012,4 hPa 0,0 l/m 5,5 km/h (1 Bft) S-SW 202 9,7 C 11,1 C 4,5 km/h (1 Bft)
16.09.2013 03:50 11,4 C 89 % 1012,4 hPa 0,0 l/m 6,0 km/h (2 Bft) S 180 9,7 C 10,9 C 6,0 km/h (2 Bft)
16.09.2013 03:55 11,4 C 89 % 1012,4 hPa 0,0 l/m 6,9 km/h (2 Bft) S 180 9,7 C 10,6 C 7,6 km/h (2 Bft)
16.09.2013 04:00 11,3 C 89 % 1012,2 hPa 0,0 l/m 6,8 km/h (2 Bft) SO 135 9,6 C 10,7 C 14,3 km/h (3 Bft)
16.09.2013 04:05 11,1 C 89 % 1012,2 hPa 0,0 l/m 5,6 km/h (1 Bft) SO 135 9,4 C 11,0 C 4,7 km/h (1 Bft)
16.09.2013 04:10 11,1 C 89 % 1012,2 hPa 0,0 l/m 6,0 km/h (2 Bft) S 180 9,4 C 10,9 C 8,5 km/h (2 Bft)
16.09.2013 04:15 11,2 C 89 % 1012,2 hPa 0,0 l/m 6,4 km/h (2 Bft) S-SW 202 9,5 C 10,9 C 7,6 km/h (2 Bft)
16.09.2013 04:20 11,3 C 89 % 1012,1 hPa 0,0 l/m 6,9 km/h (2 Bft) S-SO 157 9,6 C 10,6 C 6,1 km/h (2 Bft)
16.09.2013 04:25 11,4 C 89 % 1012,1 hPa 0,0 l/m 5,8 km/h (2 Bft) SO 135 9,7 C 11,3 C 2,9 km/h (1 Bft)
16.09.2013 04:30 11,4 C 89 % 1012,1 hPa 0,0 l/m 5,6 km/h (1 Bft) SW 225 9,7 C 11,4 C 9,3 km/h (2 Bft)
16.09.2013 04:35 11,6 C 89 % 1012,1 hPa 0,0 l/m 6,9 km/h (2 Bft) O-SO 112 9,8 C 11,0 C 9,0 km/h (2 Bft)
16.09.2013 04:40 11,6 C 88 % 1012,2 hPa 0,0 l/m 7,4 km/h (2 Bft) W-SW 247 9,7 C 10,5 C 8,2 km/h (2 Bft)
16.09.2013 04:45 11,7 C 88 % 1012,2 hPa 0,0 l/m 8,2 km/h (2 Bft) S 180 9,8 C 10,0 C 9,7 km/h (2 Bft)
16.09.2013 04:50 11,7 C 87 % 1012,2 hPa 0,0 l/m 8,9 km/h (2 Bft) SO 135 9,6 C 9,4 C 12,2 km/h (2 Bft)
16.09.2013 04:55 11,6 C 87 % 1012,2 hPa 0,0 l/m 8,2 km/h (2 Bft) S-SW 202 9,5 C 9,9 C 11,1 km/h (2 Bft)
16.09.2013 05:00 11,6 C 86 % 1012,4 hPa 0,0 l/m 7,7 km/h (2 Bft) S 180 9,3 C 10,2 C 13,7 km/h (3 Bft)
16.09.2013 05:05 11,5 C 86 % 1012,4 hPa 0,0 l/m 7,4 km/h (2 Bft) S-SW 202 9,2 C 10,5 C 10,0 km/h (2 Bft)
16.09.2013 05:10 11,5 C 86 % 1012,4 hPa 0,0 l/m 7,9 km/h (2 Bft) W-SW 247 9,2 C 10,0 C 14,5 km/h (3 Bft)
16.09.2013 05:15 11,4 C 86 % 1012,4 hPa 0,0 l/m 6,8 km/h (2 Bft) S 180 9,1 C 10,8 C 5,8 km/h (2 Bft)
16.09.2013 05:20 11,3 C 86 % 1012,0 hPa 0,0 l/m 5,1 km/h (1 Bft) S 180 9,0 C 11,6 C 5,3 km/h (1 Bft)
16.09.2013 05:25 11,3 C 86 % 1012,0 hPa 0,0 l/m 4,2 km/h (1 Bft) S 180 9,0 C 11,6 C 2,7 km/h (1 Bft)
16.09.2013 05:30 11,3 C 86 % 1012,0 hPa 0,0 l/m 4,2 km/h (1 Bft) SW 225 9,0 C 11,6 C 12,1 km/h (2 Bft)
16.09.2013 05:35 11,3 C 86 % 1012,0 hPa 0,0 l/m 4,0 km/h (1 Bft) SO 135 9,0 C 11,6 C 4,2 km/h (1 Bft)
16.09.2013 05:40 11,3 C 86 % 1011,9 hPa 0,0 l/m 4,2 km/h (1 Bft) S 180 9,0 C 11,5 C 4,2 km/h (1 Bft)
16.09.2013 05:45 11,0 C 87 % 1011,9 hPa 0,0 l/m 4,5 km/h (1 Bft) O-NO 67 8,9 C 11,1 C 4,0 km/h (1 Bft)
16.09.2013 05:50 10,9 C 88 % 1011,9 hPa 0,0 l/m 4,7 km/h (1 Bft) S 180 9,0 C 10,8 C 5,0 km/h (1 Bft)
16.09.2013 05:55 10,7 C 88 % 1011,9 hPa 0,0 l/m 4,3 km/h (1 Bft) SO 135 8,8 C 10,8 C 3,5 km/h (1 Bft)
16.09.2013 06:00 10,7 C 89 % 1011,8 hPa 0,0 l/m 5,0 km/h (1 Bft) S-SO 157 9,0 C 10,6 C 13,4 km/h (3 Bft)
16.09.2013 06:05 10,7 C 90 % 1011,8 hPa 0,0 l/m 6,6 km/h (2 Bft) S 180 9,1 C 9,9 C 7,9 km/h (2 Bft)
16.09.2013 06:10 10,6 C 91 % 1011,8 hPa 0,0 l/m 6,9 km/h (2 Bft) S 180 9,2 C 9,5 C 10,9 km/h (2 Bft)
16.09.2013 06:15 10,7 C 92 % 1011,8 hPa 0,0 l/m 6,0 km/h (2 Bft) SO 135 9,5 C 10,2 C 3,1 km/h (1 Bft)
16.09.2013 06:20 10,6 C 92 % 1011,8 hPa 0,0 l/m 5,8 km/h (2 Bft) S 180 9,4 C 10,2 C 5,8 km/h (2 Bft)
16.09.2013 06:25 10,6 C 93 % 1011,8 hPa 0,0 l/m 5,5 km/h (1 Bft) S-SO 157 9,5 C 10,3 C 9,5 km/h (2 Bft)
16.09.2013 06:30 10,5 C 92 % 1011,8 hPa 0,0 l/m 7,6 km/h (2 Bft) S 180 9,3 C 9,0 C 9,0 km/h (2 Bft)
16.09.2013 06:35 10,3 C 92 % 1011,8 hPa 0,0 l/m 8,5 km/h (2 Bft) S 180 9,1 C 8,1 C 10,8 km/h (2 Bft)
16.09.2013 06:40 10,3 C 92 % 1011,8 hPa 0,0 l/m 7,1 km/h (2 Bft) S-SW 202 9,1 C 9,4 C 7,4 km/h (2 Bft)
16.09.2013 06:45 10,2 C 92 % 1011,8 hPa 0,0 l/m 6,8 km/h (2 Bft) SO 135 9,0 C 9,5 C 6,4 km/h (2 Bft)
16.09.2013 06:50 10,1 C 92 % 1011,8 hPa 0,0 l/m 5,6 km/h (1 Bft) S 180 8,9 C 10,0 C 6,0 km/h (2 Bft)
16.09.2013 06:55 10,1 C 92 % 1011,8 hPa 0,0 l/m 2,9 km/h (1 Bft) O-SO 112 8,9 C 10,3 C 7,7 km/h (2 Bft)
16.09.2013 07:00 10,1 C 93 % 1011,6 hPa 0,0 l/m 3,1 km/h (1 Bft) S-SO 157 9,0 C 10,3 C 5,6 km/h (1 Bft)
16.09.2013 07:05 10,0 C 93 % 1011,6 hPa 0,0 l/m 3,1 km/h (1 Bft) S 180 8,9 C 10,3 C 2,9 km/h (1 Bft)
16.09.2013 07:10 10,0 C 93 % 1011,6 hPa 0,0 l/m 3,1 km/h (1 Bft) S 180 8,9 C 10,2 C 1,9 km/h (1 Bft)
16.09.2013 07:15 9,9 C 93 % 1011,6 hPa 0,0 l/m 3,5 km/h (1 Bft) S 180 8,8 C 10,1 C 3,7 km/h (1 Bft)
16.09.2013 07:20 9,9 C 93 % 1011,5 hPa 0,0 l/m 3,7 km/h (1 Bft) S 180 8,8 C 10,1 C 7,4 km/h (2 Bft)
16.09.2013 07:25 10,0 C 93 % 1011,5 hPa 0,0 l/m 3,9 km/h (1 Bft) S-SW 202 8,9 C 10,1 C 5,6 km/h (1 Bft)
16.09.2013 07:30 10,1 C 93 % 1011,5 hPa 0,0 l/m 2,9 km/h (1 Bft) S-SW 202 9,0 C 10,2 C 2,3 km/h (1 Bft)
16.09.2013 07:35 10,2 C 93 % 1011,5 hPa 0,0 l/m 2,6 km/h (1 Bft) S 180 9,1 C 10,3 C 4,8 km/h (1 Bft)
16.09.2013 07:40 10,3 C 93 % 1011,3 hPa 0,0 l/m 3,1 km/h (1 Bft) W-SW 247 9,2 C 10,5 C 3,7 km/h (1 Bft)
16.09.2013 07:45 10,3 C 93 % 1011,3 hPa 0,0 l/m 3,2 km/h (1 Bft) S 180 9,2 C 10,6 C 3,2 km/h (1 Bft)
16.09.2013 07:50 10,3 C 93 % 1011,3 hPa 0,0 l/m 2,6 km/h (1 Bft) S-SO 157 9,2 C 10,6 C 2,6 km/h (1 Bft)
16.09.2013 07:55 10,2 C 93 % 1011,3 hPa 0,0 l/m 2,1 km/h (1 Bft) S-SW 202 9,1 C 10,6 C 3,4 km/h (1 Bft)
16.09.2013 08:00 10,2 C 93 % 1011,4 hPa 0,0 l/m 1,9 km/h (1 Bft) S 180 9,1 C 10,6 C 5,0 km/h (1 Bft)
16.09.2013 08:05 10,3 C 93 % 1011,4 hPa 0,0 l/m 1,4 km/h (1 Bft) O-SO 112 9,2 C 10,6 C 2,1 km/h (1 Bft)
16.09.2013 08:10 10,3 C 93 % 1011,4 hPa 0,0 l/m 2,4 km/h (1 Bft) S 180 9,2 C 10,6 C 5,1 km/h (1 Bft)
16.09.2013 08:15 10,3 C 93 % 1011,4 hPa 0,0 l/m 3,9 km/h (1 Bft) SO 135 9,2 C 10,6 C 2,3 km/h (1 Bft)
16.09.2013 08:20 10,3 C 93 % 1011,3 hPa 0,0 l/m 3,2 km/h (1 Bft) S-SO 157 9,2 C 10,6 C 9,7 km/h (2 Bft)
16.09.2013 08:25 10,3 C 93 % 1011,3 hPa 0,0 l/m 2,1 km/h (1 Bft) S-SW 202 9,2 C 10,4 C 0,0 km/h (0 Bft)
16.09.2013 08:30 10,4 C 93 % 1011,3 hPa 0,0 l/m 2,4 km/h (1 Bft) S 180 9,3 C 10,4 C 3,4 km/h (1 Bft)
16.09.2013 08:35 10,4 C 93 % 1011,3 hPa 0,0 l/m 1,3 km/h (1 Bft) S-SO 157 9,3 C 10,4 C 3,7 km/h (1 Bft)
16.09.2013 08:40 10,4 C 93 % 1011,1 hPa 0,0 l/m 1,1 km/h (1 Bft) SW 225 9,3 C 10,4 C 0,0 km/h (0 Bft)
16.09.2013 08:45 10,5 C 93 % 1011,1 hPa 0,0 l/m 1,9 km/h (1 Bft) S-SW 202 9,4 C 10,4 C 2,9 km/h (1 Bft)
16.09.2013 08:50 10,6 C 93 % 1011,1 hPa 0,0 l/m 2,3 km/h (1 Bft) S 180 9,5 C 10,4 C 2,9 km/h (1 Bft)
16.09.2013 08:55 10,7 C 94 % 1011,1 hPa 0,0 l/m 1,9 km/h (1 Bft) W-SW 247 9,8 C 10,5 C 2,1 km/h (1 Bft)
16.09.2013 09:00 10,7 C 94 % 1011,2 hPa 0,0 l/m 1,1 km/h (1 Bft) SO 135 9,8 C 10,6 C 1,6 km/h (1 Bft)
16.09.2013 09:05 10,6 C 94 % 1011,2 hPa 0,0 l/m 1,8 km/h (1 Bft) S 180 9,7 C 10,6 C 3,9 km/h (1 Bft)
16.09.2013 09:10 10,6 C 94 % 1011,2 hPa 0,0 l/m 2,1 km/h (1 Bft) S 180 9,7 C 10,6 C 6,4 km/h (2 Bft)
16.09.2013 09:15 10,6 C 93 % 1011,2 hPa 0,0 l/m 3,7 km/h (1 Bft) S 180 9,5 C 10,6 C 8,2 km/h (2 Bft)
16.09.2013 09:20 10,6 C 93 % 1011,0 hPa 0,0 l/m 4,8 km/h (1 Bft) S 180 9,5 C 10,5 C 4,7 km/h (1 Bft)
16.09.2013 09:25 10,7 C 93 % 1011,0 hPa 0,0 l/m 4,7 km/h (1 Bft) S 180 9,6 C 10,7 C 3,9 km/h (1 Bft)
16.09.2013 09:30 10,8 C 93 % 1011,0 hPa 0,0 l/m 3,9 km/h (1 Bft) S-SO 157 9,7 C 10,8 C 2,3 km/h (1 Bft)
16.09.2013 09:35 10,9 C 93 % 1011,0 hPa 0,0 l/m 3,1 km/h (1 Bft) S-SO 157 9,8 C 11,1 C 6,1 km/h (2 Bft)
16.09.2013 09:40 11,0 C 93 % 1010,9 hPa 0,0 l/m 3,2 km/h (1 Bft) S 180 9,9 C 11,3 C 7,4 km/h (2 Bft)
16.09.2013 09:45 11,3 C 92 % 1010,9 hPa 0,0 l/m 4,7 km/h (1 Bft) S-SW 202 10,0 C 11,6 C 6,4 km/h (2 Bft)
16.09.2013 09:50 11,5 C 92 % 1010,9 hPa 0,0 l/m 4,7 km/h (1 Bft) N-NO 22 10,2 C 11,7 C 5,3 km/h (1 Bft)
16.09.2013 09:55 11,5 C 91 % 1010,9 hPa 0,0 l/m 5,0 km/h (1 Bft) S-SW 202 10,1 C 12,0 C 7,2 km/h (2 Bft)
16.09.2013 10:00 11,4 C 90 % 1010,9 hPa 0,0 l/m 5,3 km/h (1 Bft) S-SW 202 9,8 C 11,9 C 6,9 km/h (2 Bft)
16.09.2013 10:05 11,4 C 90 % 1010,9 hPa 0,0 l/m 5,3 km/h (1 Bft) S 180 9,8 C 11,9 C 10,9 km/h (2 Bft)
16.09.2013 10:10 11,4 C 89 % 1010,9 hPa 0,0 l/m 5,8 km/h (2 Bft) S-SW 202 9,7 C 11,8 C 5,5 km/h (1 Bft)
16.09.2013 10:15 11,5 C 89 % 1010,9 hPa 0,0 l/m 5,0 km/h (1 Bft) O-SO 112 9,8 C 12,0 C 5,8 km/h (2 Bft)
16.09.2013 10:20 11,5 C 89 % 1010,9 hPa 0,0 l/m 3,9 km/h (1 Bft) O-SO 112 9,8 C 12,0 C 3,2 km/h (1 Bft)
16.09.2013 10:25 11,6 C 89 % 1010,9 hPa 0,0 l/m 3,9 km/h (1 Bft) O 90 9,8 C 12,1 C 3,7 km/h (1 Bft)
16.09.2013 10:30 11,7 C 90 % 1010,9 hPa 0,0 l/m 3,4 km/h (1 Bft) S 180 10,1 C 12,3 C 5,0 km/h (1 Bft)
16.09.2013 10:35 11,9 C 90 % 1010,9 hPa 0,0 l/m 2,3 km/h (1 Bft) NO 45 10,3 C 12,4 C 0,0 km/h (0 Bft)
16.09.2013 10:40 11,9 C 89 % 1010,8 hPa 0,0 l/m 3,1 km/h (1 Bft) S-SO 157 10,1 C 12,6 C 2,6 km/h (1 Bft)
16.09.2013 10:45 12,3 C 89 % 1010,8 hPa 0,0 l/m 2,6 km/h (1 Bft) S 180 10,5 C 12,9 C 6,4 km/h (2 Bft)
16.09.2013 10:50 12,4 C 89 % 1010,8 hPa 0,0 l/m 3,4 km/h (1 Bft) SW 225 10,6 C 13,0 C 3,2 km/h (1 Bft)
16.09.2013 10:55 12,7 C 88 % 1010,8 hPa 0,0 l/m 4,2 km/h (1 Bft) S-SW 202 10,8 C 13,4 C 8,4 km/h (2 Bft)
16.09.2013 11:00 12,7 C 87 % 1011,1 hPa 0,0 l/m 4,7 km/h (1 Bft) S-SO 157 10,6 C 13,4 C 8,0 km/h (2 Bft)
16.09.2013 11:05 12,5 C 87 % 1011,1 hPa 0,0 l/m 6,6 km/h (2 Bft) SW 225 10,4 C 13,0 C 8,2 km/h (2 Bft)
16.09.2013 11:10 12,5 C 86 % 1011,1 hPa 0,0 l/m 6,4 km/h (2 Bft) W 270 10,2 C 13,1 C 5,1 km/h (1 Bft)
16.09.2013 11:15 12,5 C 85 % 1011,1 hPa 0,0 l/m 6,1 km/h (2 Bft) S 180 10,0 C 13,1 C 6,4 km/h (2 Bft)
16.09.2013 11:20 12,5 C 85 % 1011,1 hPa 0,0 l/m 5,8 km/h (2 Bft) S-SW 202 10,0 C 13,2 C 10,1 km/h (2 Bft)
16.09.2013 11:25 12,5 C 85 % 1011,1 hPa 0,0 l/m 4,8 km/h (1 Bft) S 180 10,0 C 13,3 C 7,2 km/h (2 Bft)
16.09.2013 11:30 12,5 C 86 % 1011,1 hPa 0,0 l/m 5,1 km/h (1 Bft) S 180 10,2 C 13,2 C 8,4 km/h (2 Bft)
16.09.2013 11:35 12,5 C 86 % 1011,1 hPa 0,0 l/m 5,0 km/h (1 Bft) S 180 10,2 C 13,1 C 6,0 km/h (2 Bft)
16.09.2013 11:40 12,5 C 85 % 1010,9 hPa 0,0 l/m 4,8 km/h (1 Bft) S 180 10,0 C 13,0 C 6,6 km/h (2 Bft)
16.09.2013 11:45 12,4 C 87 % 1010,9 hPa 0,0 l/m 4,2 km/h (1 Bft) S 180 10,3 C 12,7 C 0,0 km/h (0 Bft)
16.09.2013 11:50 12,4 C 88 % 1010,9 hPa 0,0 l/m 3,4 km/h (1 Bft) S 180 10,5 C 12,5 C 1,6 km/h (1 Bft)
16.09.2013 11:55 12,4 C 88 % 1010,9 hPa 0,0 l/m 2,1 km/h (1 Bft) S 180 10,5 C 12,5 C 2,3 km/h (1 Bft)
16.09.2013 12:00 12,4 C 89 % 1010,6 hPa 0,0 l/m 1,9 km/h (1 Bft) S-SW 202 10,6 C 12,4 C 2,6 km/h (1 Bft)
16.09.2013 12:05 12,7 C 89 % 1010,6 hPa 0,0 l/m 1,6 km/h (1 Bft) S 180 10,9 C 12,6 C 2,3 km/h (1 Bft)
16.09.2013 12:10 12,7 C 88 % 1010,6 hPa 0,0 l/m 2,1 km/h (1 Bft) W-SW 247 10,8 C 12,7 C 4,2 km/h (1 Bft)
16.09.2013 12:15 13,0 C 87 % 1010,6 hPa 0,0 l/m 3,7 km/h (1 Bft) S-SW 202 10,9 C 13,0 C 6,0 km/h (2 Bft)
16.09.2013 12:20 13,2 C 87 % 1010,8 hPa 0,0 l/m 3,4 km/h (1 Bft) SW 225 11,1 C 13,3 C 2,4 km/h (1 Bft)
16.09.2013 12:25 13,6 C 87 % 1010,8 hPa 0,0 l/m 3,5 km/h (1 Bft) S 180 11,5 C 13,8 C 4,8 km/h (1 Bft)
16.09.2013 12:30 13,6 C 86 % 1010,8 hPa 0,0 l/m 3,5 km/h (1 Bft) S-SW 202 11,3 C 13,8 C 5,1 km/h (1 Bft)
16.09.2013 12:35 13,2 C 86 % 1010,8 hPa 0,0 l/m 3,7 km/h (1 Bft) S-SO 157 10,9 C 13,7 C 4,7 km/h (1 Bft)
16.09.2013 12:40 13,1 C 85 % 1010,5 hPa 0,0 l/m 3,2 km/h (1 Bft) W-SW 247 10,6 C 13,7 C 2,1 km/h (1 Bft)
16.09.2013 12:45 13,3 C 87 % 1010,5 hPa 0,0 l/m 1,6 km/h (1 Bft) W-SW 247 11,2 C 13,8 C 1,6 km/h (1 Bft)
16.09.2013 12:50 13,4 C 87 % 1010,5 hPa 0,0 l/m 1,3 km/h (1 Bft) S-SW 202 11,3 C 13,9 C 1,8 km/h (1 Bft)
16.09.2013 12:55 13,3 C 87 % 1010,5 hPa 0,0 l/m 1,8 km/h (1 Bft) S 180 11,2 C 13,9 C 3,1 km/h (1 Bft)
16.09.2013 13:00 13,5 C 87 % 1009,9 hPa 0,0 l/m 1,4 km/h (1 Bft) S 180 11,4 C 14,1 C 2,4 km/h (1 Bft)
16.09.2013 13:05 13,4 C 86 % 1009,9 hPa 0,0 l/m 2,3 km/h (1 Bft) W-SW 247 11,1 C 14,2 C 4,0 km/h (1 Bft)
16.09.2013 13:10 13,4 C 86 % 1009,9 hPa 0,0 l/m 2,6 km/h (1 Bft) S-SW 202 11,1 C 14,1 C 2,4 km/h (1 Bft)
16.09.2013 13:15 13,3 C 86 % 1009,9 hPa 0,0 l/m 2,3 km/h (1 Bft) S 180 11,0 C 13,9 C 2,7 km/h (1 Bft)
16.09.2013 13:20 13,2 C 86 % 1009,9 hPa 0,0 l/m 2,4 km/h (1 Bft) S-SW 202 10,9 C 13,6 C 3,5 km/h (1 Bft)
16.09.2013 13:25 13,4 C 87 % 1009,9 hPa 0,0 l/m 1,8 km/h (1 Bft) S-SW 202 11,3 C 13,3 C 4,3 km/h (1 Bft)
16.09.2013 13:30 13,2 C 86 % 1009,9 hPa 0,0 l/m 1,3 km/h (1 Bft) W-SW 247 10,9 C 13,2 C 2,9 km/h (1 Bft)
16.09.2013 13:35 13,1 C 86 % 1009,9 hPa 0,0 l/m 1,9 km/h (1 Bft) S 180 10,8 C 13,0 C 4,8 km/h (1 Bft)
16.09.2013 13:40 13,1 C 86 % 1009,9 hPa 0,0 l/m 2,3 km/h (1 Bft) S 180 10,8 C 12,7 C 0,0 km/h (0 Bft)
16.09.2013 13:45 13,1 C 86 % 1009,9 hPa 0,0 l/m 2,3 km/h (1 Bft) S 180 10,8 C 12,5 C 2,9 km/h (1 Bft)
16.09.2013 13:50 12,9 C 87 % 1009,9 hPa 0,0 l/m 1,9 km/h (1 Bft) SO 135 10,8 C 12,4 C 2,6 km/h (1 Bft)
16.09.2013 13:55 12,6 C 88 % 1009,9 hPa 0,7 l/m 1,9 km/h (1 Bft) O-SO 112 10,7 C 12,3 C 2,9 km/h (1 Bft)
16.09.2013 14:00 12,5 C 88 % 1009,8 hPa 0,0 l/m 1,8 km/h (1 Bft) S 180 10,6 C 12,2 C 3,2 km/h (1 Bft)
16.09.2013 14:05 12,2 C 89 % 1009,8 hPa 0,0 l/m 1,9 km/h (1 Bft) S 180 10,4 C 12,0 C 1,8 km/h (1 Bft)
16.09.2013 14:10 12,0 C 90 % 1009,8 hPa 0,0 l/m 2,4 km/h (1 Bft) S-SW 202 10,4 C 11,8 C 3,1 km/h (1 Bft)
16.09.2013 14:15 11,7 C 91 % 1009,8 hPa 0,7 l/m 3,1 km/h (1 Bft) S-SO 157 10,3 C 11,6 C 5,3 km/h (1 Bft)
16.09.2013 14:20 11,6 C 91 % 1009,6 hPa 0,0 l/m 3,5 km/h (1 Bft) S 180 10,2 C 11,5 C 4,0 km/h (1 Bft)
16.09.2013 14:25 11,4 C 91 % 1009,6 hPa 0,0 l/m 4,5 km/h (1 Bft) SO 135 10,0 C 11,3 C 4,5 km/h (1 Bft)
16.09.2013 14:30 11,4 C 92 % 1009,6 hPa 0,0 l/m 5,0 km/h (1 Bft) S 180 10,1 C 11,1 C 6,0 km/h (2 Bft)
16.09.2013 14:35 11,4 C 92 % 1009,6 hPa 0,0 l/m 3,9 km/h (1 Bft) S 180 10,1 C 11,2 C 6,1 km/h (2 Bft)
16.09.2013 14:40 11,3 C 92 % 1009,4 hPa 0,7 l/m 3,5 km/h (1 Bft) S 180 10,0 C 11,1 C 3,5 km/h (1 Bft)
16.09.2013 14:45 11,3 C 92 % 1009,4 hPa 0,0 l/m 2,4 km/h (1 Bft) O 90 10,0 C 11,1 C 2,1 km/h (1 Bft)
16.09.2013 14:50 11,2 C 92 % 1009,4 hPa 0,0 l/m 1,1 km/h (1 Bft) O-SO 112 9,9 C 11,2 C 3,1 km/h (1 Bft)
16.09.2013 14:55 11,2 C 93 % 1009,4 hPa 0,0 l/m 0,6 km/h (0 Bft) N-NO 22 10,1 C 11,3 C 0,0 km/h (0 Bft)
16.09.2013 15:00 11,2 C 93 % 1008,9 hPa 0,7 l/m 0,3 km/h (0 Bft) S 180 10,1 C 11,3 C 0,0 km/h (0 Bft)
16.09.2013 15:05 11,3 C 93 % 1008,9 hPa 0,0 l/m 0,3 km/h (0 Bft) S-SW 202 10,2 C 11,3 C 1,8 km/h (1 Bft)
16.09.2013 15:10 11,3 C 93 % 1008,9 hPa 0,0 l/m 0,3 km/h (0 Bft) W-SW 247 10,2 C 11,3 C 0,0 km/h (0 Bft)
16.09.2013 15:15 11,4 C 93 % 1008,9 hPa 0,0 l/m 0,2 km/h (0 Bft) S-SW 202 10,3 C 11,3 C 0,0 km/h (0 Bft)
16.09.2013 15:20 11,4 C 93 % 1008,6 hPa 0,0 l/m 0,0 km/h (0 Bft) O-SO 112 10,3 C 11,4 C 0,0 km/h (0 Bft)
16.09.2013 15:25 11,2 C 93 % 1008,6 hPa 0,0 l/m 0,0 km/h (0 Bft) S-SW 202 10,1 C 11,4 C 0,0 km/h (0 Bft)
16.09.2013 15:30 11,2 C 94 % 1008,6 hPa 0,0 l/m 0,0 km/h (0 Bft) N-NO 22 10,3 C 11,4 C 0,0 km/h (0 Bft)
16.09.2013 15:35 11,0 C 94 % 1008,6 hPa 0,7 l/m 0,2 km/h (0 Bft) NW 315 10,1 C 11,3 C 0,0 km/h (0 Bft)
16.09.2013 15:40 11,1 C 94 % 1008,3 hPa 0,0 l/m 0,2 km/h (0 Bft) W 270 10,2 C 11,3 C 0,0 km/h (0 Bft)
16.09.2013 15:45 11,2 C 94 % 1008,3 hPa 0,0 l/m 0,5 km/h (0 Bft) N-NW 337 10,3 C 11,3 C 1,6 km/h (1 Bft)
16.09.2013 15:50 11,2 C 94 % 1008,3 hPa 0,0 l/m 0,8 km/h (0 Bft) N 360 10,3 C 11,3 C 0,0 km/h (0 Bft)
16.09.2013 15:55 11,2 C 94 % 1008,3 hPa 0,0 l/m 1,4 km/h (1 Bft) N-NW 337 10,3 C 11,4 C 2,4 km/h (1 Bft)
16.09.2013 16:00 11,1 C 94 % 1007,9 hPa 0,0 l/m 1,6 km/h (1 Bft) N 360 10,2 C 11,4 C 2,1 km/h (1 Bft)
16.09.2013 16:05 11,4 C 94 % 1007,9 hPa 0,0 l/m 1,9 km/h (1 Bft) N-NW 337 10,5 C 11,5 C 3,7 km/h (1 Bft)
16.09.2013 16:10 11,4 C 94 % 1007,9 hPa 0,0 l/m 1,9 km/h (1 Bft) NO 45 10,5 C 11,5 C 0,0 km/h (0 Bft)
16.09.2013 16:15 11,5 C 94 % 1007,9 hPa 0,0 l/m 1,4 km/h (1 Bft) W-NW 292 10,6 C 11,6 C 0,0 km/h (0 Bft)
16.09.2013 16:20 11,5 C 94 % 1007,4 hPa 0,0 l/m 1,3 km/h (1 Bft) O-NO 67 10,6 C 11,6 C 0,0 km/h (0 Bft)
16.09.2013 16:25 11,7 C 94 % 1007,4 hPa 0,0 l/m 1,6 km/h (1 Bft) NW 315 10,8 C 11,7 C 3,5 km/h (1 Bft)
16.09.2013 16:30 11,6 C 94 % 1007,4 hPa 0,0 l/m 1,1 km/h (1 Bft) SO 135 10,7 C 11,7 C 0,0 km/h (0 Bft)
16.09.2013 16:35 11,8 C 94 % 1007,4 hPa 0,0 l/m 1,0 km/h (0 Bft) W-NW 292 10,9 C 12,0 C 2,1 km/h (1 Bft)
16.09.2013 16:40 11,8 C 94 % 1007,3 hPa 0,0 l/m 1,1 km/h (1 Bft) N-NO 22 10,9 C 12,0 C 3,1 km/h (1 Bft)
16.09.2013 16:45 11,8 C 94 % 1007,3 hPa 0,0 l/m 1,9 km/h (1 Bft) W-NW 292 10,9 C 12,1 C 1,9 km/h (1 Bft)
16.09.2013 16:50 11,9 C 94 % 1007,3 hPa 0,0 l/m 2,1 km/h (1 Bft) W-SW 247 11,0 C 12,1 C 1,8 km/h (1 Bft)
16.09.2013 16:55 11,9 C 94 % 1007,3 hPa 0,0 l/m 2,1 km/h (1 Bft) W-SW 247 11,0 C 12,2 C 2,9 km/h (1 Bft)
16.09.2013 17:00 11,8 C 94 % 1007,6 hPa 0,0 l/m 1,6 km/h (1 Bft) W-SW 247 10,9 C 12,1 C 2,9 km/h (1 Bft)
16.09.2013 17:05 11,6 C 94 % 1007,6 hPa 0,0 l/m 2,4 km/h (1 Bft) SW 225 10,7 C 12,0 C 3,5 km/h (1 Bft)
16.09.2013 17:10 11,5 C 94 % 1007,6 hPa 0,0 l/m 3,1 km/h (1 Bft) S-SW 202 10,6 C 11,9 C 3,4 km/h (1 Bft)
16.09.2013 17:15 11,5 C 94 % 1007,6 hPa 0,0 l/m 3,1 km/h (1 Bft) W-SW 247 10,6 C 11,7 C 4,7 km/h (1 Bft)
16.09.2013 17:20 11,5 C 94 % 1007,5 hPa 0,0 l/m 3,2 km/h (1 Bft) S-SW 202 10,6 C 11,7 C 3,9 km/h (1 Bft)
16.09.2013 17:25 11,4 C 94 % 1007,5 hPa 0,0 l/m 3,2 km/h (1 Bft) SO 135 10,5 C 11,6 C 0,0 km/h (0 Bft)
16.09.2013 17:30 11,4 C 94 % 1007,5 hPa 0,0 l/m 2,6 km/h (1 Bft) S-SO 157 10,5 C 11,6 C 3,1 km/h (1 Bft)
16.09.2013 17:35 11,3 C 94 % 1007,5 hPa 0,0 l/m 1,1 km/h (1 Bft) O-NO 67 10,4 C 11,6 C 0,0 km/h (0 Bft)
16.09.2013 17:40 11,3 C 94 % 1007,2 hPa 0,0 l/m 1,0 km/h (0 Bft) NO 45 10,4 C 11,6 C 0,0 km/h (0 Bft)
16.09.2013 17:45 11,3 C 94 % 1007,2 hPa 0,0 l/m 0,3 km/h (0 Bft) S-SW 202 10,4 C 11,5 C 0,0 km/h (0 Bft)
16.09.2013 17:50 11,3 C 94 % 1007,2 hPa 0,0 l/m 0,0 km/h (0 Bft) NO 45 10,4 C 11,4 C 0,0 km/h (0 Bft)
16.09.2013 17:55 11,1 C 94 % 1007,2 hPa 0,0 l/m 1,0 km/h (0 Bft) NO 45 10,2 C 11,3 C 3,2 km/h (1 Bft)
16.09.2013 18:00 11,1 C 94 % 1006,8 hPa 0,0 l/m 1,9 km/h (1 Bft) NO 45 10,2 C 11,3 C 3,4 km/h (1 Bft)
16.09.2013 18:05 11,0 C 94 % 1006,8 hPa 0,0 l/m 2,1 km/h (1 Bft) W 270 10,1 C 11,1 C 0,0 km/h (0 Bft)
16.09.2013 18:10 11,0 C 94 % 1006,8 hPa 0,0 l/m 1,6 km/h (1 Bft) S-SW 202 10,1 C 11,1 C 2,6 km/h (1 Bft)
16.09.2013 18:15 11,0 C 94 % 1006,8 hPa 0,7 l/m 1,8 km/h (1 Bft) S-SW 202 10,1 C 11,0 C 0,0 km/h (0 Bft)
16.09.2013 18:20 11,0 C 94 % 1006,8 hPa 0,0 l/m 1,3 km/h (1 Bft) N 360 10,1 C 11,0 C 1,9 km/h (1 Bft)
16.09.2013 18:25 11,0 C 94 % 1006,8 hPa 0,0 l/m 0,3 km/h (0 Bft) S 180 10,1 C 11,0 C 1,6 km/h (1 Bft)
16.09.2013 18:30 11,0 C 94 % 1006,8 hPa 0,0 l/m 0,8 km/h (0 Bft) S 180 10,1 C 11,1 C 2,1 km/h (1 Bft)
16.09.2013 18:35 11,1 C 94 % 1006,8 hPa 0,0 l/m 1,3 km/h (1 Bft) W-SW 247 10,2 C 11,1 C 0,0 km/h (0 Bft)
16.09.2013 18:40 11,0 C 94 % 1007,1 hPa 0,0 l/m 1,6 km/h (1 Bft) S 180 10,1 C 11,1 C 3,1 km/h (1 Bft)
16.09.2013 18:45 10,9 C 95 % 1007,1 hPa 0,0 l/m 1,6 km/h (1 Bft) SO 135 10,1 C 11,1 C 3,2 km/h (1 Bft)
16.09.2013 18:50 10,9 C 95 % 1007,1 hPa 0,0 l/m 1,4 km/h (1 Bft) S-SO 157 10,1 C 11,0 C 2,1 km/h (1 Bft)
16.09.2013 18:55 10,9 C 95 % 1007,1 hPa 0,0 l/m 0,6 km/h (0 Bft) S-SO 157 10,1 C 11,0 C 1,9 km/h (1 Bft)
16.09.2013 19:00 10,9 C 95 % 1007,1 hPa 0,0 l/m 1,0 km/h (0 Bft) N-NO 22 10,1 C 11,0 C 1,8 km/h (1 Bft)
16.09.2013 19:05 10,9 C 95 % 1007,1 hPa 0,0 l/m 1,0 km/h (0 Bft) NO 45 10,1 C 11,0 C 0,0 km/h (0 Bft)
16.09.2013 19:10 10,8 C 95 % 1007,1 hPa 0,0 l/m 0,3 km/h (0 Bft) O 90 10,0 C 11,0 C 0,0 km/h (0 Bft)
16.09.2013 19:15 10,8 C 95 % 1007,1 hPa 0,0 l/m 0,2 km/h (0 Bft) N-NO 22 10,0 C 10,9 C 0,0 km/h (0 Bft)
16.09.2013 19:20 10,8 C 95 % 1006,7 hPa 0,0 l/m 0,0 km/h (0 Bft) O-SO 112 10,0 C 10,9 C 0,0 km/h (0 Bft)
16.09.2013 19:25 10,7 C 95 % 1006,7 hPa 0,0 l/m 0,2 km/h (0 Bft) S 180 9,9 C 10,9 C 0,0 km/h (0 Bft)
16.09.2013 19:30 10,7 C 95 % 1006,7 hPa 0,0 l/m 0,2 km/h (0 Bft) S-SO 157 9,9 C 10,9 C 0,0 km/h (0 Bft)
16.09.2013 19:35 10,7 C 95 % 1006,7 hPa 0,0 l/m 0,3 km/h (0 Bft) O-SO 112 9,9 C 10,8 C 4,3 km/h (1 Bft)
16.09.2013 19:40 10,7 C 95 % 1006,7 hPa 0,0 l/m 0,6 km/h (0 Bft) S-SO 157 9,9 C 10,8 C 2,7 km/h (1 Bft)
16.09.2013 19:45 10,7 C 95 % 1006,7 hPa 0,0 l/m 1,1 km/h (1 Bft) O-NO 67 9,9 C 10,8 C 0,0 km/h (0 Bft)
16.09.2013 19:50 10,6 C 95 % 1006,7 hPa 0,0 l/m 0,8 km/h (0 Bft) O-NO 67 9,8 C 10,8 C 0,0 km/h (0 Bft)
16.09.2013 19:55 10,6 C 95 % 1006,7 hPa 0,0 l/m 1,0 km/h (0 Bft) S 180 9,8 C 10,8 C 4,2 km/h (1 Bft)
16.09.2013 20:00 10,6 C 95 % 1006,7 hPa 0,0 l/m 2,1 km/h (1 Bft) S-SW 202 9,8 C 10,8 C 4,0 km/h (1 Bft)
16.09.2013 20:05 10,6 C 95 % 1006,7 hPa 0,7 l/m 3,9 km/h (1 Bft) S 180 9,8 C 10,8 C 15,1 km/h (3 Bft)
16.09.2013 20:10 10,6 C 95 % 1006,7 hPa 0,0 l/m 5,0 km/h (1 Bft) W-SW 247 9,8 C 10,6 C 4,2 km/h (1 Bft)
16.09.2013 20:15 10,6 C 95 % 1006,7 hPa 0,7 l/m 6,0 km/h (2 Bft) S 180 9,8 C 10,3 C 5,5 km/h (1 Bft)
16.09.2013 20:20 10,6 C 95 % 1006,4 hPa 0,0 l/m 5,6 km/h (1 Bft) S 180 9,8 C 10,4 C 6,1 km/h (2 Bft)
16.09.2013 20:25 10,5 C 95 % 1006,4 hPa 0,0 l/m 5,8 km/h (2 Bft) O-NO 67 9,7 C 10,3 C 4,2 km/h (1 Bft)
16.09.2013 20:30 10,5 C 95 % 1006,4 hPa 0,0 l/m 5,5 km/h (1 Bft) S-SW 202 9,7 C 10,3 C 6,6 km/h (2 Bft)
16.09.2013 20:35 10,4 C 95 % 1006,4 hPa 0,0 l/m 4,3 km/h (1 Bft) S-SW 202 9,6 C 10,6 C 4,2 km/h (1 Bft)
16.09.2013 20:40 10,4 C 95 % 1006,3 hPa 0,0 l/m 5,0 km/h (1 Bft) S-SW 202 9,6 C 10,4 C 7,4 km/h (2 Bft)
16.09.2013 20:45 10,4 C 95 % 1006,3 hPa 0,0 l/m 5,5 km/h (1 Bft) S 180 9,6 C 10,3 C 4,3 km/h (1 Bft)
16.09.2013 20:50 10,3 C 95 % 1006,3 hPa 0,0 l/m 5,3 km/h (1 Bft) S 180 9,5 C 10,3 C 8,0 km/h (2 Bft)
16.09.2013 20:55 10,2 C 95 % 1006,3 hPa 0,0 l/m 4,2 km/h (1 Bft) S 180 9,4 C 10,4 C 4,2 km/h (1 Bft)
16.09.2013 21:00 10,2 C 95 % 1006,4 hPa 0,0 l/m 3,9 km/h (1 Bft) O 90 9,4 C 10,3 C 4,0 km/h (1 Bft)
16.09.2013 21:05 9,9 C 95 % 1006,4 hPa 0,0 l/m 2,7 km/h (1 Bft) O-NO 67 9,1 C 10,2 C 1,9 km/h (1 Bft)
16.09.2013 21:10 9,9 C 95 % 1006,4 hPa 0,0 l/m 1,6 km/h (1 Bft) NO 45 9,1 C 10,1 C 2,7 km/h (1 Bft)
16.09.2013 21:15 10,0 C 95 % 1006,4 hPa 0,0 l/m 1,3 km/h (1 Bft) S 180 9,2 C 10,1 C 4,3 km/h (1 Bft)
16.09.2013 21:20 10,0 C 95 % 1006,1 hPa 0,0 l/m 1,9 km/h (1 Bft) NO 45 9,2 C 10,1 C 2,9 km/h (1 Bft)
16.09.2013 21:25 10,0 C 95 % 1006,1 hPa 0,0 l/m 1,9 km/h (1 Bft) NO 45 9,2 C 10,1 C 2,6 km/h (1 Bft)
16.09.2013 21:30 9,7 C 95 % 1006,1 hPa 0,0 l/m 1,4 km/h (1 Bft) SO 135 8,9 C 10,0 C 2,9 km/h (1 Bft)
16.09.2013 21:35 9,6 C 95 % 1006,1 hPa 0,0 l/m 0,6 km/h (0 Bft) O-SO 112 8,8 C 9,6 C 2,1 km/h (1 Bft)
16.09.2013 21:40 9,6 C 95 % 1005,9 hPa 0,0 l/m 1,1 km/h (1 Bft) O-NO 67 8,8 C 9,6 C 2,9 km/h (1 Bft)
16.09.2013 21:45 9,6 C 95 % 1005,9 hPa 0,0 l/m 2,1 km/h (1 Bft) NO 45 8,8 C 9,5 C 3,7 km/h (1 Bft)
16.09.2013 21:50 9,5 C 95 % 1005,9 hPa 0,0 l/m 2,3 km/h (1 Bft) O-SO 112 8,7 C 9,5 C 2,9 km/h (1 Bft)
16.09.2013 21:55 9,1 C 95 % 1005,9 hPa 0,0 l/m 1,3 km/h (1 Bft) O-SO 112 8,3 C 9,3 C 0,0 km/h (0 Bft)
16.09.2013 22:00 9,0 C 95 % 1005,6 hPa 0,0 l/m 0,5 km/h (0 Bft) NO 45 8,2 C 9,1 C 0,0 km/h (0 Bft)
16.09.2013 22:05 9,0 C 95 % 1005,6 hPa 0,0 l/m 0,2 km/h (0 Bft) O 90 8,2 C 9,0 C 1,9 km/h (1 Bft)
16.09.2013 22:10 9,1 C 95 % 1005,6 hPa 0,0 l/m 0,2 km/h (0 Bft) SO 135 8,3 C 9,0 C 0,0 km/h (0 Bft)
16.09.2013 22:15 9,2 C 95 % 1005,6 hPa 0,0 l/m 1,0 km/h (0 Bft) O-NO 67 8,4 C 9,0 C 3,4 km/h (1 Bft)
16.09.2013 22:20 9,2 C 95 % 1005,4 hPa 0,0 l/m 1,6 km/h (1 Bft) O 90 8,4 C 9,1 C 2,9 km/h (1 Bft)
16.09.2013 22:25 9,2 C 95 % 1005,4 hPa 0,0 l/m 1,8 km/h (1 Bft) NO 45 8,4 C 9,1 C 3,2 km/h (1 Bft)
16.09.2013 22:30 9,3 C 95 % 1005,4 hPa 0,0 l/m 1,1 km/h (1 Bft) SO 135 8,5 C 9,2 C 0,0 km/h (0 Bft)
16.09.2013 22:35 9,2 C 95 % 1005,4 hPa 0,0 l/m 0,3 km/h (0 Bft) O-NO 67 8,4 C 9,3 C 0,0 km/h (0 Bft)
16.09.2013 22:40 9,3 C 95 % 1005,5 hPa 0,0 l/m 0,2 km/h (0 Bft) O-NO 67 8,5 C 9,3 C 0,0 km/h (0 Bft)
16.09.2013 22:45 9,5 C 95 % 1005,5 hPa 0,0 l/m 0,2 km/h (0 Bft) NO 45 8,7 C 9,5 C 0,0 km/h (0 Bft)
16.09.2013 22:50 9,5 C 95 % 1005,5 hPa 0,0 l/m 0,2 km/h (0 Bft) NO 45 8,7 C 9,5 C 0,0 km/h (0 Bft)
16.09.2013 22:55 9,3 C 95 % 1005,5 hPa 0,0 l/m 0,3 km/h (0 Bft) S-SO 157 8,5 C 9,5 C 0,0 km/h (0 Bft)
16.09.2013 23:00 9,3 C 95 % 1005,8 hPa 0,0 l/m 0,3 km/h (0 Bft) SO 135 8,5 C 9,4 C 1,8 km/h (1 Bft)
16.09.2013 23:05 9,6 C 95 % 1005,8 hPa 0,7 l/m 3,9 km/h (1 Bft) S 180 8,8 C 9,6 C 30,7 km/h (5 Bft)
16.09.2013 23:10 8,1 C 95 % 1005,8 hPa 0,7 l/m 11,6 km/h (2 Bft) S-SO 157 7,3 C 3,7 C 37,3 km/h (5 Bft)
16.09.2013 23:15 7,3 C 95 % 1005,8 hPa 0,0 l/m 19,3 km/h (3 Bft) S-SW 202 6,6 C -3,0 C 15,1 km/h (3 Bft)
16.09.2013 23:20 7,2 C 95 % 1006,6 hPa 0,0 l/m 17,7 km/h (3 Bft) S-SW 202 6,5 C -2,7 C 41,2 km/h (6 Bft)
16.09.2013 23:25 7,1 C 95 % 1006,6 hPa 0,7 l/m 11,4 km/h (2 Bft) S 180 6,4 C 1,2 C 8,9 km/h (2 Bft)
16.09.2013 23:30 7,0 C 95 % 1006,6 hPa 0,0 l/m 8,7 km/h (2 Bft) SO 135 6,3 C 3,7 C 7,1 km/h (2 Bft)
16.09.2013 23:35 7,0 C 95 % 1006,6 hPa 0,0 l/m 7,1 km/h (2 Bft) O 90 6,3 C 5,2 C 6,8 km/h (2 Bft)
16.09.2013 23:40 7,0 C 95 % 1006,6 hPa 0,7 l/m 7,2 km/h (2 Bft) S 180 6,3 C 5,1 C 5,5 km/h (1 Bft)
16.09.2013 23:45 6,9 C 95 % 1006,6 hPa 0,0 l/m 7,2 km/h (2 Bft) O-SO 112 6,2 C 5,0 C 10,1 km/h (2 Bft)
16.09.2013 23:50 6,8 C 95 % 1006,6 hPa 0,0 l/m 7,4 km/h (2 Bft) SO 135 6,1 C 4,7 C 5,0 km/h (1 Bft)
16.09.2013 23:55 6,8 C 95 % 1006,6 hPa 0,0 l/m 7,4 km/h (2 Bft) SO 135 6,1 C 4,6 C 11,1 km/h (2 Bft)
_ Min-Zeit 23:55 12:40 22:35 - 19:20 - - 23:55 23:15 22:55
Minimum _ 6,8 C 85 % 1005,4 hPa - 0,0 km/h (0 Bft) - - 6,1 C -3,0 C 0,0 km/h (0 Bft)
_ Max-Zeit 12:30 23:55 01:15 23:40 23:15 - - 12:25 13:05 23:20
Maximum _ 13,6 C 95 % 1013,2 hPa 0,7 l/m 19,3 km/h
S-SW (3 Bft)
- - 11,5 C 14,2 C 41,2 km/h
S-SW (6 Bft)
Durchschnitt _ 11,2 C 91 % 1009,8 hPa #8,2 l/m 3,9 km/h (1 Bft) S - 9,7 C 11,0 C 5,2 km/h (1 Bft)